Regional Weather Roundup
Issued by NWS Charleston, SC

Current Version | Previous Version | Graphics & Text | Print | Product List | Glossary On
Versions: 1 2 3 4 5 6 7 8 9 10 11 12 13 14 15 16 17 18 19 20 21 22 23 24 25 26 27 28 29 30 31 32 33 34 35 36 37 38 39 40 41 42 43 44 45 46 47 48 49 50
020 ASUS42 KCHS 291512 RWRCHS REGIONAL WEATHER ROUNDUP NATIONAL WEATHER SERVICE CHARLESTON SC 1100 AM EDT WED MAR 29 2017 NOTE: "FAIR" INDICATES FEW OR NO CLOUDS BELOW 12,000 FEET WITH NO SIGNIFICANT WEATHER AND/OR OBSTRUCTIONS TO VISIBILITY. NOT ALL STATIONS ARE QUALITY CONTROLLED. USE DATA WITH CAUTION... ESPECIALLY DEWPOINT OBSERVATIONS. SCZ027-030-031-034>040-042>050-291600- ...SOUTHEAST SOUTH CAROLINA... CITY SKY/WX TMP DP RH WIND PRES REMARKS N CHARLESTON MOSUNNY 76 54 46 E6 30.03R WATERFRONT PRK N/A 70 58 66 N6 30.02R JOHNS ISLAND FAIR 73 57 56 N5 30.04R PINOPOLIS N/A 66 59 77 CALM 29.96R MONCKS CORNER FAIR 72 52 49 CALM 30.04R SUMMERVILLE FAIR 72 54 53 N6 30.05R BEAUFORT MCAS SUNNY 74 58 57 VRB5 30.04R BEAUFORT ARPT FAIR 72 59 64 NE6 30.04S HAZE HILTON HEAD IS SUNNY 73 57 56 NE7 30.05R WALTERBORO SUNNY 72 54 53 E6 30.06R ALLENDALE FAIR 73 54 49 E3 30.05R ...SOUTHERN MIDLANDS AND PEE DEE... CITY SKY/WX TMP DP RH WIND PRES REMARKS GEORGETOWN FAIR 73 54 49 CALM 30.04R KINGSTREE FAIR 72 50 46 NE3 30.04S ORANGEBURG SUNNY 73 53 49 VRB3 30.06R BARNWELL FAIR 73 54 49 NE6 30.06S AIKEN FAIR 70 52 52 E8 30.10S MANNING FAIR 72 52 49 E5 30.05R COLUMBIA MOSUNNY 73 51 46 NE8 30.06R SUMTER SUNNY 72 53 51 CALM 30.04R FLORENCE SUNNY 71 56 58 NE6 30.05R MYRTLE BEACH SUNNY 73 55 53 N9 30.03R N MYRTLE BEACH SUNNY 74 55 51 NE7 30.03R $$ GAZ063-065-086>088-099>101-113>116-118-119-134>141-150-291600- ...SOUTHEAST GEORGIA... CITY SKY/WX TMP DP RH WIND PRES REMARKS SAVANNAH ARPT PTSUNNY 77 56 48 E7 30.04R HUNTER AAF SUNNY 77 62 58 E7 30.02R FORT STEWART MOSUNNY 77 60 56 NE3 30.02R STATESBORO SUNNY 76 57 51 E8 30.05S SYLVANIA SUNNY N/A N/A N/A SE6 30.07R CLAXTON FAIR 76 61 59 NE5 30.05R ...CSRA...CENTRAL AND FAR SOUTHEAST GEORGIA... CITY SKY/WX TMP DP RH WIND PRES REMARKS THOMSON SUNNY 72 51 48 SE10 30.12S AUGUSTA-BUSH SUNNY 75 52 44 E6 30.05S AUGUSTA-DANIEL SUNNY 73 49 42 NE8 30.07S SWAINSBORO FAIR 75 52 43 SE7 30.07S VIDALIA SUNNY 75 59 57 E5 30.05S EASTMAN FAIR 79 46 31 E3 30.07S HAZLEHURST FAIR 76 66 71 CALM 30.04S ALMA SUNNY 78 65 63 NW5 30.04R WAYCROSS SUNNY 81 69 67 NE3 30.04S JESUP FAIR 79 61 53 CALM 30.04S BAXLEY FAIR 77 68 73 NE6 30.04S BRUNSWICK SUNNY 81 68 65 N6 30.05R SAINT SIMONS SUNNY 79 62 56 NW6 30.03R $$ SCZ027-028-034-036>038-045-046-048>050-GAZ119-141-291600- ...LAKE AND SUPPLEMENTAL COASTAL OBSERVATIONS... STATION/POSITION TIME TEMP WIND PRES WAVE SWELL AIR SEA DIR/SP/G HT/PER HT/PER/DIR (UTC) (F) (DEG/KT/KT) (MB) (FT/S) (FT/S/D) WINYAH BAY 1345 69 50/ 11 1016.0 LAKE MURRAY 1420 68 40/ 1/ 6 1017.6R ACE BASIN NERRS NOT AVBL FORT PULASKI 1448 69 66 50/ 9/ 12 1017.4R SAPELO ISLAND 1400 74 350/ 6 1017.0 $$ ANZ835-935-AMZ111-154-330-350-352-354-370-450-454-472-291600- ...C-MAN AND BUOY OBSERVATIONS... STATION/POSITION TIME TEMP WIND PRES WAVE SWELL AIR SEA DIR/SP/G HT/PER HT/PER/DIR (UTC) (F) (DEG/KT/KT) (MB) (FT/S) (FT/S/D) BUOY 41004 1350 70 70 40/ 12/ 14 1015.3 5/11 3/110/11 BUOY 41008 1350 66 65 300/ 4/ 4 1016.0 3/11 3/ 90/11 FOLLY BEACH CMAN 1400 66 40/ 8/ 9 1017.2R CAPERS NEARSHORE NOT AVBL FRIPP NEARSHORE 1408 65 63 20/ 6/ 8 1016.4R STATION/POSITION TIME TEMP WIND PRES WAVE SWELL AIR SEA DIR/SP/G HT/PER HT/PER/DIR (UTC) (F) (DEG/KT/KT) (MB) (FT/S) (FT/S/D) 5E ST. MARYS GA 1430 68 N/A 3/ 9 2/110/11 FRYING PAN BUOY 1450 68 74 10/ 12/ 16 1016.3R 4/10 3/130/10 BUOY 41025 1450 55 73 20/ 21/ 25 1016.9R 6/10 3/150/10 CAPE LOOKOUT NC 1500 59 30/ 19/ 21 1017.6R BUOY 41002 1350 70 72 260/ 6/ 8 1014.8 6/10 7/100/10 BUOY 41010 NOT AVBL ST AUGUSTINE FL 1500 71 67 100/ 4/ 4 1018.8R $$

USA.gov is the U.S. government's official web portal to all federal, state and local government web resources and services.